Back to catalog

TIANLIAN-2 05

AliveCommunicationsGEO
NORAD 63662·PAYLOAD·🇨🇳 China

Launched Apr 27, 2025 from Xichang Satellite Launch Center

Loading…

TLE

FreshSource: Space-Track

Epoch: Sep 14, 2026, 19:01 UTC

1 63662U 25084A   26257.79304102  .00000114  00000-0  00000+0 0  9995
2 63662   4.2306 278.8652 0001192 201.1662 179.6225  1.00274146  5281

Track TIANLIAN-2 05 in real time with AllMySat

Download on the App Store